Regional Weather Roundup
Issued by NWS

Home | Current Version | Previous Version | Graphics & Text | Print | Product List | Glossary On
Versions: 1 2 3 4 5 6 7 8 9 10 11 12 13 14 15 16 17 18 19 20 21 22 23 24 25 26 27 28 29 30 31 32 33 34 35 36 37 38 39 40 41 42 43 44 45 46 47 48
000
ASUS45 KCYS 291910
RWRWY

WYOMING REGIONAL WEATHER ROUNDUP
NATIONAL WEATHER SERVICE CHEYENNE WY
100 PM MDT SAT AUG 29 2015

NOTE:  "FAIR" INDICATES FEW OR NO CLOUDS BELOW 12,000 FEET
WITH NO SIGNIFICANT WEATHER AND/OR OBSTRUCTIONS TO VISIBILITY.

WYZ001-292000-
YELLOWSTONE NATIONAL PARK

CITY           SKY/WX    TMP DP  RH WIND       PRES   REMARKS
LK YELLOWSTONE   N/A     67  36  31 SW8       30.34R
W YELLOWSTONE  NOT AVBL

$$
WYZ002>013-054>058-071-098>099-292000-
NORTHERN WYOMING

CITY           SKY/WX    TMP DP  RH WIND       PRES   REMARKS
JACKSON        PTSUNNY   72  43  35 S5        30.23F
CODY           FAIR      90  37  15 SE13      30.04F
GREYBULL       FAIR      93  38  14 S12       29.98F
WORLAND        FAIR      91  33  12 W5        30.01F
SHERIDAN       FAIR      95  37  13 SE13      29.97F HX  90
BUFFALO        FAIR      92  34  13 VRB3      30.06F
GILLETTE       FAIR      94  37  13 SW17      30.03F
HULETT         FAIR      91  37  15 S15G23    30.06F
NEWCASTLE      FAIR      88  37  16 S12       30.10F

$$
WYZ014>020-022>026-101>103-292000-
CENTRAL WYOMING

CITY           SKY/WX    TMP DP  RH WIND       PRES   REMARKS
BIG PINEY      FAIR      80  34  19 S9        30.28F
PINEDALE       FAIR      79  30  17 S13       30.29F
DUBOIS         FAIR      77  30  18 W20G25    30.25F
LANDER         FAIR      83  44  25 NW7       30.13F
RIVERTON       FAIR      83  42  23 VRB3      30.15F
CASPER         FAIR      89  30  12 S9G23     30.15F
DOUGLAS        FAIR      91  28  10 VRB3      30.14F

$$
WYZ021-027>030-104>119-292000-
SOUTHERN WYOMING

CITY           SKY/WX    TMP DP  RH WIND       PRES   REMARKS
EVANSTON       FAIR      83  36  18 SW17G26   30.28F
KEMMERER       FAIR      82  30  15 SW12G21   30.30F
FORT BRIDGER   MOCLDY    82  34  17 W6        30.31F
ROCK SPRINGS   FAIR      84  31  14 W12       30.27F
DIXON          FAIR      84  29  14 N7        30.31F
RAWLINS        FAIR      82  30  15 VRB3      30.30F
SARATOGA       FAIR      79  27  14 W3        30.34F
LARAMIE        FAIR      79  26  14 N5        30.34F
CHEYENNE       FAIR      83  39  21 S13G21    30.26F
TORRINGTON     FAIR      91  47  21 SE14      30.10F
PINE BLUFFS    FAIR      86  34  15 S15G22    30.21F

$$



USA.gov is the U.S. government's official web portal to all federal, state and local government web resources and services.